DW1289 Weather Reports


time (UTC)temp
C
wind
direction
speed
KPH
gust
KPH
rain 1hr
cm
rain 24hr
cm
rain mn
cm
humidity
%
barometer
mb
20260905220016 36 225 3.2 8.0 0.00 0.00 0.00 48 1010.8
20260905215016 36 225 4.8 11.3 0.00 0.00 0.00 49 1011.1
20260905214016 36 248 3.2 14.5 0.00 0.00 0.00 49 1011.1
20260905213016 36 248 4.8 12.9 0.00 0.00 0.00 47 1011.0
20260905212036 37 248 4.8 12.9 0.00 0.00 0.00 48 1011.1
20260905211016 37 248 3.2 11.3 0.00 0.00 0.00 47 1011.0
20260905210016 37 248 4.8 16.1 0.00 0.00 0.00 48 1011.1
20260905205016 37 248 4.8 12.9 0.00 0.00 0.00 48 1011.1
20260905204016 37 248 1.6 6.4 0.00 0.00 0.00 48 1011.4
20260905203016 37 248 3.2 11.3 0.00 0.00 0.00 49 1011.5
20260905202016 37 248 1.6 11.3 0.00 0.00 0.00 48 1011.7
20260905201016 36 248 3.2 11.3 0.00 0.00 0.00 48 1011.8
20260905200016 36 248 4.8 12.9 0.00 0.00 0.00 49 1011.9
20260905195016 37 248 1.6 6.4 0.00 0.00 0.00 49 1012.1
20260905194016 36 248 3.2 11.3 0.00 0.00 0.00 49 1012.3
20260905193016 36 248 3.2 9.7 0.00 0.00 0.00 49 1012.4
20260905192016 36 225 3.2 8.0 0.00 0.00 0.00 46 1012.6
20260905191036 36 135 3.2 6.4 0.00 0.00 0.00 48 1012.6
20260905190016 36 158 3.2 6.4 0.00 0.00 0.00 47 1013.0
20260905185036 36 248 4.8 11.3 0.00 0.00 0.00 47 1013.1
20260905184016 36 248 3.2 9.7 0.00 0.00 0.00 49 1013.1
20260905183116 36 248 3.2 12.9 0.00 0.00 0.00 50 1013.3
20260905182016 35 248 4.8 12.9 0.00 0.00 0.00 48 1013.4
20260905181016 35 248 4.8 9.7 0.00 0.00 0.00 50 1013.4
20260905180016 35 248 4.8 11.3 0.00 0.00 0.00 51 1013.4
20260905175016 35 248 3.2 12.9 0.00 0.00 0.00 52 1013.5
20260905174016 35 248 3.2 12.9 0.00 0.00 0.00 51 1013.7
20260905173016 35 248 3.2 12.9 0.00 0.00 0.00 52 1013.7
20260905172016 34 248 4.8 16.1 0.00 0.00 0.00 54 1013.9
20260905171136 33 248 3.2 11.3 0.00 0.00 0.00 56 1013.9
20260905170016 33 248 3.2 9.7 0.00 0.00 0.00 55 1014.2
20260905165016 33 68 3.2 11.3 0.00 0.00 0.00 57 1014.4
20260905164036 33 248 3.2 11.3 0.00 0.00 0.00 59 1014.6
20260905163016 32 135 1.6 8.0 0.00 0.00 0.00 60 1014.8
20260905162016 32 68 3.2 9.7 0.00 0.00 0.00 57 1014.8
20260905161016 32 45 3.2 8.0 0.00 0.00 0.00 58 1014.8
20260905160036 32 180 1.6 6.4 0.00 0.00 0.00 59 1014.7
20260905155056 31 113 1.6 8.0 0.00 0.00 0.00 60 1014.8
20260905154016 31 135 1.6 9.7 0.00 0.00 0.00 63 1014.8
20260905153016 30 45 3.2 8.0 0.00 0.00 0.00 63 1014.9
20260905152016 30 270 1.6 6.4 0.00 0.00 0.00 67 1014.9
20260905151016 29 45 3.2 14.5 0.00 0.00 0.00 68 1015.0
20260905150016 29 45 4.8 9.7 0.00 0.00 0.00 69 1015.0
20260905145036 28 45 3.2 12.9 0.00 0.00 0.00 71 1015.2
20260905144036 28 45 3.2 11.3 0.00 0.00 0.00 72 1015.2
20260905143016 27 45 4.8 16.1 0.00 0.00 0.00 73 1015.2
20260905142016 27 68 4.8 14.5 0.00 0.00 0.00 75 1015.1
20260905141016 27 45 6.4 14.5 0.00 0.00 0.00 77 1015.2
20260905140036 26 45 3.2 11.3 0.00 0.00 0.00 79 1015.4
20260905135016 26 45 6.4 19.3 0.00 0.00 0.00 81 1015.6
20260905134016 26 45 6.4 14.5 0.00 0.00 0.00 83 1015.4
20260905133016 26 45 6.4 16.1 0.00 0.00 0.00 83 1015.5
20260905132016 26 45 8.0 19.3 0.00 0.00 0.00 83 1015.8
20260905131036 26 45 4.8 16.1 0.00 0.00 0.00 88 1015.7
20260905130016 26 45 3.2 16.1 0.00 0.00 0.00 90 1016.1
20260905125016 26 0.0 4.8 0.00 0.00 0.00 92 1015.3
20260905124016 25 270 1.6 3.2 0.00 0.00 0.00 92 1015.0
20260905123016 25 0.0 4.8 0.00 0.00 0.00 92 1014.9
20260905122016 25 248 1.6 6.4 0.00 0.00 0.00 92 1015.0
20260905121016 25 0.0 0.0 0.00 0.00 0.00 92 1014.9
20260905120016 25 0.0 1.6 0.00 0.00 0.00 92 1014.8
20260905115016 25 0.0 0.0 0.00 0.00 0.00 92 1014.8
20260905114036 25 0.0 1.6 0.00 0.00 0.00 92 1014.6
20260905113016 25 68 1.6 12.9 0.00 0.00 0.00 92 1014.4
20260905112016 24 45 1.6 12.9 0.00 0.00 0.00 92 1014.3
20260905111016 24 0.0 0.0 0.00 0.00 0.00 92 1013.9
20260905110016 25 0.0 0.0 0.00 0.00 0.00 92 1013.7
20260905105016 25 0.0 0.0 0.00 0.00 0.00 92 1013.4
20260905104016 25 0.0 0.0 0.00 0.00 0.00 92 1013.4
20260905103016 25 0.0 0.0 0.00 0.00 0.00 92 1013.4
20260905102016 25 0.0 3.2 0.00 0.00 0.00 92 1013.5
20260905101016 25 0.0 3.2 0.00 0.00 0.00 91 1013.7
20260905100016 25 0.0 0.0 0.00 0.00 0.00 91 1013.8
20260905095016 25 0.0 0.0 0.00 0.00 0.00 90 1013.7
20260905094036 25 0.0 0.0 0.00 0.00 0.00 90 1013.6
20260905093016 25 0.0 0.0 0.00 0.00 0.00 90 1013.3
20260905092016 25 0.0 0.0 0.00 0.00 0.00 90 1013.3
20260905091036 25 0.0 0.0 0.00 0.00 0.00 90 1013.0
20260905090016 25 0.0 3.2 0.00 0.00 0.00 90 1013.1
20260905085036 25 0 1.6 8.0 0.00 0.00 0.00 90 1013.2
20260905084016 25 0.0 0.0 0.00 0.00 0.00 90 1013.1
20260905083016 25 0.0 0.0 0.00 0.00 0.00 90 1013.0
20260905082036 25 0.0 0.0 0.00 0.00 0.00 89 1013.0
20260905081016 25 0.0 0.0 0.00 0.00 0.00 89 1013.1
20260905080016 25 0.0 4.8 0.00 0.00 0.00 89 1013.2
20260905075016 25 0.0 0.0 0.00 0.00 0.00 89 1013.1
20260905074036 25 0.0 0.0 0.00 0.00 0.00 88 1013.1
20260905073016 25 0.0 0.0 0.00 0.00 0.00 88 1013.3
20260905072016 26 0.0 0.0 0.00 0.00 0.00 88 1013.4
20260905071016 26 0.0 0.0 0.00 0.00 0.00 87 1013.4
20260905070016 26 0.0 0.0 0.00 0.00 0.00 87 1013.4
20260905065016 26 0.0 0.0 0.00 0.00 0.00 87 1013.5
20260905064016 26 0.0 0.0 0.00 0.00 0.00 88 1013.7
20260905063016 26 0.0 0.0 0.00 0.00 0.00 88 1013.9
20260905062036 26 0.0 0.0 0.00 0.00 0.00 87 1014.0
20260905061036 26 0.0 0.0 0.00 0.00 0.00 87 1014.2
20260905060016 26 0.0 0.0 0.00 0.00 0.00 87 1014.2
20260905055016 26 0.0 0.0 0.00 0.00 0.00 86 1014.2
20260905054016 26 0.0 0.0 0.00 0.00 0.00 86 1014.1
20260905053016 26 0.0 0.0 0.00 0.00 0.00 86 1014.2
20260905052016 26 0.0 0.0 0.00 0.00 0.00 85 1014.1
20260905051016 26 0.0 0.0 0.00 0.00 0.00 86 1014.1
20260905050016 26 0.0 0.0 0.00 0.00 0.00 85 1014.2
20260905045016 27 0.0 0.0 0.00 0.00 0.00 84 1014.2
20260905044016 27 0.0 0.0 0.00 0.00 0.00 83 1014.1
20260905043016 27 0.0 0.0 0.00 0.00 0.00 83 1014.1
20260905042016 27 0.0 0.0 0.00 0.00 0.00 83 1014.1
20260905041016 27 0.0 0.0 0.00 0.00 0.00 83 1014.1
20260905040016 27 0.0 0.0 0.00 0.00 0.00 83 1014.1
20260905035016 27 0.0 1.6 0.00 0.00 0.00 83 1014.1
20260905034016 27 0.0 0.0 0.00 0.00 0.00 81 1014.2
20260905033016 27 0.0 0.0 0.00 0.00 0.00 80 1014.2
20260905032016 27 0.0 0.0 0.00 0.00 0.00 79 1014.2
20260905031016 28 0.0 0.0 0.00 0.00 0.00 78 1014.3
20260905030016 28 0.0 0.0 0.00 0.00 0.00 78 1014.3
20260905025036 28 0.0 0.0 0.00 0.00 0.00 78 1014.3
20260905024016 28 0.0 0.0 0.00 0.00 0.00 77 1014.1
20260905023036 28 0.0 0.0 0.00 0.00 0.00 75 1014.0
20260905022016 28 0.0 0.0 0.00 0.00 0.00 74 1013.9
20260905021016 29 0.0 0.0 0.00 0.00 0.00 73 1014.0
20260905020036 29 0.0 0.0 0.00 0.00 0.00 72 1013.7
20260905015056 30 0.0 0.0 0.00 0.00 0.00 71 1013.6
20260905014016 30 0.0 0.0 0.00 0.00 0.00 71 1013.6
20260905013016 30 0.0 0.0 0.00 0.00 0.00 68 1013.4
20260905012016 30 0.0 0.0 0.00 0.00 0.00 67 1013.3
20260905011016 31 0.0 0.0 0.00 0.00 0.00 65 1013.1
20260905010016 31 0.0 0.0 0.00 0.00 0.00 66 1013.1
20260905005016 32 0.0 0.0 0.00 0.00 0.00 64 1013.1
20260905004036 32 0.0 0.0 0.00 0.00 0.00 62 1013.1
20260905003016 33 0.0 0.0 0.00 0.00 0.00 60 1013.2
20260905002016 33 0.0 0.0 0.00 0.00 0.00 59 1013.1
20260905001056 34 0.0 0.0 0.00 0.00 0.00 58 1013.0
20260905000016 34 0.0 0.0 0.00 0.00 0.00 55 1013.0
20260904235016 34 0.0 3.2 0.00 0.00 0.00 54 1013.0
20260904234016 35 248 1.6 4.8 0.00 0.00 0.00 52 1013.0
20260904233016 35 248 3.2 4.8 0.00 0.00 0.00 51 1013.1
20260904232016 36 248 1.6 4.8 0.00 0.00 0.00 49 1013.2
20260904231016 36 270 1.6 4.8 0.00 0.00 0.00 47 1013.2
20260904230016 37 0.0 3.2 0.00 0.00 0.00 47 1013.3
20260904225016 37 248 1.6 4.8 0.00 0.00 0.00 45 1013.3
20260904224016 37 270 3.2 6.4 0.00 0.00 0.00 46 1013.3
20260904223016 37 338 3.2 6.4 0.00 0.00 0.00 45 1013.3
20260904222016 37 248 3.2 8.0 0.00 0.00 0.00 46 1013.3
20260904221016 37 248 3.2 11.3 0.00 0.00 0.00 45 1013.4